| time (UTC) | temp F | wind direction | speed MPH | gust MPH | rain 1hr in | rain 24hr in | rain mn in | humidity % | barometer mb |
| 20260905215123 | 54 | 147 | 18.0 | 38.0 | 0.00 | 0.00 | 0.00 | 1019.5 | |
| 20260905214215 | 54 | 163 | 7.0 | 9.0 | 0.00 | 0.00 | 0.00 | 1019.8 | |
| 20260905213305 | 54 | 158 | 13.0 | 20.0 | 0.00 | 0.00 | 0.00 | 1019.6 | |
| 20260905212442 | 54 | 133 | 4.0 | 9.0 | 0.00 | 0.00 | 0.00 | 1019.5 | |
| 20260905211505 | 54 | 151 | 7.0 | 9.0 | 0.00 | 0.00 | 0.00 | 1019.3 | |
| 20260905210515 | 54 | 150 | 11.0 | 16.0 | 0.00 | 0.00 | 0.00 | 1019.7 | |
| 20260905205612 | 54 | 150 | 9.0 | 11.0 | 0.00 | 0.00 | 0.00 | 1019.5 | |
| 20260905204615 | 54 | 166 | 9.0 | 11.0 | 0.00 | 0.00 | 0.00 | 1019.6 | |
| 20260905203715 | 54 | 127 | 7.0 | 11.0 | 0.00 | 0.00 | 0.00 | 1019.1 | |
| 20260905202815 | 54 | 163 | 11.0 | 16.0 | 0.00 | 0.00 | 0.00 | 1019.1 | |
| 20260905201844 | 54 | 150 | 11.0 | 16.0 | 0.00 | 0.00 | 0.00 | 1019.2 | |
| 20260905200922 | 55 | 179 | 7.0 | 11.0 | 0.00 | 0.00 | 0.00 | 1019.2 | |
| 20260905200051 | 55 | 139 | 4.0 | 4.0 | 0.00 | 0.00 | 0.00 | 1019.0 | |
| 20260905195212 | 55 | 172 | 18.0 | 25.0 | 0.00 | 0.00 | 0.00 | 1019.0 | |
| 20260905194212 | 55 | 153 | 11.0 | 20.0 | 0.00 | 0.00 | 0.00 | 1019.0 | |
| 20260905193315 | 55 | 126 | 18.0 | 25.0 | 0.00 | 0.00 | 0.00 | 1018.8 | |
| 20260905192323 | 55 | 176 | 20.0 | 38.0 | 0.00 | 0.00 | 0.00 | 1019.1 | |
| 20260905191523 | 55 | 142 | 9.0 | 11.0 | 0.00 | 0.00 | 0.00 | 1019.1 | |
| 20260905190555 | 55 | 137 | 4.0 | 9.0 | 0.00 | 0.00 | 0.00 | 1018.9 | |
| 20260905185623 | 55 | 178 | 13.0 | 20.0 | 0.00 | 0.00 | 0.00 | 1018.9 | |
| 20260905184655 | 55 | 177 | 20.0 | 25.0 | 0.00 | 0.00 | 0.00 | 1019.0 | |
| 20260905183725 | 55 | 136 | 18.0 | 20.0 | 0.00 | 0.00 | 0.00 | 1018.8 | |
| 20260905182815 | 55 | 135 | 16.0 | 20.0 | 0.00 | 0.00 | 0.00 | 1018.8 | |
| 20260905181822 | 55 | 149 | 13.0 | 20.0 | 0.00 | 0.00 | 0.00 | 1019.1 | |
| 20260905180933 | 55 | 170 | 16.0 | 20.0 | 0.00 | 0.00 | 0.00 | 1018.9 | |
| 20260905180125 | 55 | 143 | 11.0 | 16.0 | 0.00 | 0.00 | 0.00 | 1018.9 | |
| 20260905175241 | 55 | 162 | 13.0 | 16.0 | 0.00 | 0.00 | 0.00 | 1018.6 | |
| 20260905174256 | 55 | 147 | 9.0 | 9.0 | 0.00 | 0.00 | 0.00 | 1019.0 | |
| 20260905173315 | 55 | 177 | 27.0 | 40.0 | 0.00 | 0.00 | 0.00 | 1018.8 | |
| 20260905172442 | 55 | 156 | 27.0 | 38.0 | 0.00 | 0.00 | 0.00 | 1018.6 | |
| 20260905171525 | 55 | 209 | 20.0 | 25.0 | 0.00 | 0.00 | 0.00 | 1018.7 | |
| 20260905170631 | 56 | 170 | 9.0 | 11.0 | 0.00 | 0.00 | 0.00 | 1018.8 | |
| 20260905165754 | 56 | 173 | 11.0 | 25.0 | 0.00 | 0.00 | 0.00 | 1018.6 | |
| 20260905164833 | 56 | 164 | 20.0 | 34.0 | 0.00 | 0.00 | 0.00 | 1018.4 | |
| 20260905163816 | 56 | 176 | 18.0 | 25.0 | 0.00 | 0.00 | 0.00 | 1018.4 | |
| 20260905162933 | 58 | 119 | 13.0 | 25.0 | 0.00 | 0.00 | 0.00 | 1018.4 | |
| 20260905162035 | 58 | 143 | 16.0 | 20.0 | 0.00 | 0.00 | 0.00 | 1018.5 | |
| 20260905161135 | 58 | 138 | 4.0 | 9.0 | 0.00 | 0.00 | 0.00 | 1018.0 | |
| 20260905160242 | 58 | 133 | 16.0 | 20.0 | 0.00 | 0.00 | 0.00 | 1018.1 | |
| 20260905155332 | 58 | 147 | 13.0 | 16.0 | 0.00 | 0.00 | 0.00 | 1018.1 | |
| 20260905154443 | 58 | 148 | 0.0 | 0.0 | 0.00 | 0.00 | 0.00 | 1018.1 | |
| 20260905153535 | 58 | 148 | 7.0 | 9.0 | 0.00 | 0.00 | 0.00 | 1018.4 | |
| 20260905152625 | 57 | 142 | 4.0 | 4.0 | 0.00 | 0.00 | 0.00 | 1018.5 | |
| 20260905151732 | 57 | 214 | 9.0 | 11.0 | 0.00 | 0.00 | 0.00 | 1018.2 | |
| 20260905150916 | 57 | 155 | 7.0 | 9.0 | 0.00 | 0.00 | 0.00 | 1018.3 | |
| 20260905145905 | 56 | 131 | 9.0 | 9.0 | 0.00 | 0.00 | 0.00 | 1018.4 | |
| 20260905144922 | 58 | 164 | 27.0 | 34.0 | 0.00 | 0.00 | 0.00 | 1018.2 | |
| 20260905143952 | 61 | 147 | 9.0 | 16.0 | 0.00 | 0.00 | 0.00 | 1017.8 | |
| 20260905142942 | 64 | 143 | 11.0 | 16.0 | 0.00 | 0.00 | 0.00 | 1017.5 | |
| 20260905142048 | 65 | 181 | 9.0 | 11.0 | 0.00 | 0.00 | 0.00 | 1017.7 | |
| 20260905141222 | 67 | 168 | 22.0 | 40.0 | 0.00 | 0.00 | 0.00 | 1017.5 | |
| 20260905140355 | 67 | 123 | 9.0 | 11.0 | 0.00 | 0.00 | 0.00 | 1017.1 | |
| 20260905135355 | 66 | 207 | 9.0 | 11.0 | 0.00 | 0.00 | 0.00 | 1017.3 | |
| 20260905134422 | 67 | 159 | 11.0 | 11.0 | 0.00 | 0.00 | 0.00 | 1017.3 | |
| 20260905133455 | 68 | 149 | 13.0 | 25.0 | 0.00 | 0.00 | 0.00 | 1017.2 | |
| 20260905132622 | 68 | 140 | 11.0 | 16.0 | 0.00 | 0.00 | 0.00 | 1017.2 | |
| 20260905131752 | 67 | 152 | 7.0 | 16.0 | 0.00 | 0.00 | 0.00 | 1017.1 | |
| 20260905130954 | 67 | 153 | 11.0 | 25.0 | 0.00 | 0.00 | 0.00 | 1016.9 | |
| 20260905130025 | 67 | 201 | 18.0 | 25.0 | 0.00 | 0.00 | 0.00 | 1016.9 | |
| 20260905125056 | 67 | 152 | 27.0 | 29.0 | 0.00 | 0.00 | 0.00 | 1016.9 | |
| 20260905124117 | 67 | 213 | 13.0 | 20.0 | 0.00 | 0.00 | 0.00 | 1017.1 | |
| 20260905123255 | 66 | 214 | 9.0 | 9.0 | 0.00 | 0.00 | 0.00 | 1016.9 | |
| 20260905122339 | 66 | 189 | 9.0 | 16.0 | 0.00 | 0.00 | 0.00 | 1017.0 | |
| 20260905121453 | 67 | 191 | 11.0 | 16.0 | 0.00 | 0.00 | 0.00 | 1016.9 | |
| 20260905120535 | 67 | 194 | 20.0 | 34.0 | 0.00 | 0.00 | 0.00 | 1017.2 | |
| 20260905115555 | 66 | 180 | 13.0 | 34.0 | 0.00 | 0.00 | 0.00 | 1017.0 | |
| 20260905114532 | 68 | 122 | 29.0 | 40.0 | 0.00 | 0.00 | 0.00 | 1017.1 | |
| 20260905113732 | 68 | 166 | 27.0 | 38.0 | 0.00 | 0.00 | 0.00 | 1017.3 | |
| 20260905112915 | 66 | 187 | 25.0 | 40.0 | 0.00 | 0.00 | 0.00 | 1017.1 | |
| 20260905111936 | 66 | 179 | 13.0 | 25.0 | 0.00 | 0.00 | 0.00 | 1017.1 | |
| 20260905105824 | 64 | 135 | 25.0 | 38.0 | 0.00 | 0.00 | 0.00 | 1017.0 | |
| 20260905104957 | 66 | 158 | 13.0 | 20.0 | 0.00 | 0.00 | 0.00 | 1017.0 | |
| 20260905104044 | 65 | 219 | 18.0 | 38.0 | 0.00 | 0.00 | 0.00 | 1016.8 | |
| 20260905103117 | 64 | 161 | 9.0 | 16.0 | 0.00 | 0.00 | 0.00 | 1016.7 | |
| 20260905102217 | 63 | 194 | 9.0 | 11.0 | 0.00 | 0.00 | 0.00 | 1016.9 | |
| 20260905101224 | 65 | 161 | 9.0 | 11.0 | 0.00 | 0.00 | 0.00 | 1016.5 | |
| 20260905100337 | 65 | 160 | 31.0 | 54.0 | 0.00 | 0.00 | 0.00 | 1016.3 | |
| 20260905095344 | 63 | 191 | 11.0 | 20.0 | 0.00 | 0.00 | 0.00 | 1016.4 | |
| 20260905094424 | 63 | 178 | 18.0 | 29.0 | 0.00 | 0.00 | 0.00 | 1016.5 | |
| 20260905093545 | 64 | 145 | 4.0 | 9.0 | 0.00 | 0.00 | 0.00 | 1016.5 | |
| 20260905092644 | 64 | 139 | 13.0 | 16.0 | 0.00 | 0.00 | 0.00 | 1016.1 | |
| 20260905091757 | 65 | 230 | 11.0 | 25.0 | 0.00 | 0.00 | 0.00 | 1016.1 | |
| 20260905090820 | 64 | 199 | 27.0 | 38.0 | 0.00 | 0.00 | 0.00 | 1016.2 | |
| 20260905085914 | 63 | 114 | 13.0 | 20.0 | 0.00 | 0.00 | 0.00 | 1016.3 | |
| 20260905085000 | 61 | 168 | 11.0 | 16.0 | 0.00 | 0.00 | 0.00 | 1016.3 | |
| 20260905084047 | 62 | 224 | 16.0 | 20.0 | 0.00 | 0.00 | 0.00 | 1016.0 | |
| 20260905083117 | 63 | 140 | 27.0 | 34.0 | 0.00 | 0.00 | 0.00 | 1015.9 | |
| 20260905082255 | 63 | 100 | 13.0 | 20.0 | 0.00 | 0.00 | 0.00 | 1016.0 | |
| 20260905081334 | 62 | 150 | 11.0 | 16.0 | 0.00 | 0.00 | 0.00 | 1015.7 | |
| 20260905080357 | 62 | 184 | 20.0 | 34.0 | 0.00 | 0.00 | 0.00 | 1015.5 | |
| 20260905075534 | 62 | 169 | 20.0 | 38.0 | 0.00 | 0.00 | 0.00 | 1015.5 | |
| 20260905074704 | 61 | 152 | 9.0 | 16.0 | 0.00 | 0.00 | 0.00 | 1015.4 | |
| 20260905073707 | 61 | 163 | 9.0 | 11.0 | 0.00 | 0.00 | 0.00 | 1015.2 | |
| 20260905072744 | 60 | 176 | 16.0 | 25.0 | 0.00 | 0.00 | 0.00 | 1015.3 | |
| 20260905071944 | 60 | 164 | 9.0 | 11.0 | 0.00 | 0.00 | 0.00 | 1015.2 | |
| 20260905071115 | 60 | 141 | 16.0 | 25.0 | 0.00 | 0.00 | 0.00 | 1015.1 | |
| 20260905070244 | 59 | 170 | 9.0 | 11.0 | 0.00 | 0.00 | 0.00 | 1015.0 | |
| 20260905065317 | 60 | 160 | 11.0 | 16.0 | 0.00 | 0.00 | 0.00 | 1014.9 | |
| 20260905064447 | 59 | 162 | 13.0 | 16.0 | 0.00 | 0.00 | 0.00 | 1014.8 | |
| 20260905063454 | 59 | 156 | 29.0 | 54.0 | 0.00 | 0.00 | 0.00 | 1014.8 | |
| 20260905062617 | 59 | 149 | 11.0 | 20.0 | 0.00 | 0.00 | 0.00 | 1015.0 | |
| 20260905061607 | 59 | 167 | 11.0 | 16.0 | 0.00 | 0.00 | 0.00 | 1014.8 | |
| 20260905060657 | 58 | 159 | 13.0 | 16.0 | 0.00 | 0.00 | 0.00 | 1014.6 | |
| 20260905055737 | 59 | 125 | 13.0 | 20.0 | 0.00 | 0.00 | 0.00 | 1014.6 | |
| 20260905054757 | 59 | 198 | 11.0 | 11.0 | 0.00 | 0.00 | 0.00 | 1014.3 | |
| 20260905053832 | 59 | 141 | 7.0 | 11.0 | 0.00 | 0.00 | 0.00 | 1014.0 | |
| 20260905052926 | 59 | 181 | 13.0 | 16.0 | 0.00 | 0.00 | 0.00 | 1014.1 | |
| 20260905052037 | 58 | 138 | 11.0 | 11.0 | 0.00 | 0.00 | 0.00 | 1013.9 | |
| 20260905051104 | 58 | 162 | 7.0 | 9.0 | 0.00 | 0.00 | 0.00 | 1013.8 | |
| 20260905050117 | 58 | 165 | 9.0 | 11.0 | 0.00 | 0.00 | 0.00 | 1014.1 | |
| 20260905045124 | 57 | 154 | 9.0 | 11.0 | 0.00 | 0.00 | 0.00 | 1013.3 | |
| 20260905044236 | 57 | 138 | 4.0 | 9.0 | 0.00 | 0.00 | 0.00 | 1013.4 | |
| 20260905043257 | 57 | 172 | 20.0 | 34.0 | 0.00 | 0.00 | 0.00 | 1013.4 | |
| 20260905042437 | 57 | 144 | 9.0 | 11.0 | 0.00 | 0.00 | 0.00 | 1013.4 | |
| 20260905041517 | 58 | 148 | 9.0 | 11.0 | 0.00 | 0.00 | 0.00 | 1013.2 | |
| 20260905040559 | 58 | 168 | 13.0 | 25.0 | 0.00 | 0.00 | 0.00 | 1012.8 | |
| 20260905035757 | 58 | 163 | 31.0 | 63.0 | 0.00 | 0.00 | 0.00 | 1013.2 | |
| 20260905034824 | 58 | 167 | 16.0 | 29.0 | 0.00 | 0.00 | 0.00 | 1012.7 | |
| 20260905033919 | 58 | 109 | 11.0 | 11.0 | 0.00 | 0.00 | 0.00 | 1012.8 | |
| 20260905033026 | 58 | 171 | 9.0 | 16.0 | 0.00 | 0.00 | 0.00 | 1012.3 | |
| 20260905032014 | 58 | 182 | 9.0 | 11.0 | 0.00 | 0.00 | 0.00 | 1012.1 | |
| 20260905031045 | 58 | 173 | 18.0 | 25.0 | 0.00 | 0.00 | 0.00 | 1012.2 | |
| 20260905030134 | 59 | 170 | 11.0 | 25.0 | 0.00 | 0.00 | 0.00 | 1011.7 | |
| 20260905025213 | 59 | 137 | 7.0 | 11.0 | 0.00 | 0.00 | 0.00 | 1012.0 | |
| 20260905024404 | 59 | 152 | 11.0 | 16.0 | 0.00 | 0.00 | 0.00 | 1011.8 | |
| 20260905023417 | 59 | 167 | 13.0 | 29.0 | 0.00 | 0.00 | 0.00 | 1011.6 | |
| 20260905022547 | 59 | 116 | 11.0 | 16.0 | 0.00 | 0.00 | 0.00 | 1011.7 | |
| 20260905021556 | 59 | 192 | 27.0 | 40.0 | 0.00 | 0.00 | 0.00 | 1011.4 | |
| 20260905020749 | 60 | 173 | 31.0 | 54.0 | 0.00 | 0.00 | 0.00 | 1011.3 | |
| 20260905015833 | 60 | 135 | 11.0 | 16.0 | 0.00 | 0.00 | 0.00 | 1011.2 | |
| 20260905015007 | 60 | 137 | 20.0 | 29.0 | 0.00 | 0.00 | 0.00 | 1011.0 | |
| 20260905014013 | 60 | 171 | 25.0 | 34.0 | 0.00 | 0.00 | 0.00 | 1010.7 | |
| 20260905013026 | 60 | 155 | 7.0 | 9.0 | 0.00 | 0.00 | 0.00 | 1010.7 | |
| 20260905012126 | 60 | 177 | 11.0 | 16.0 | 0.00 | 0.00 | 0.00 | 1010.9 | |
| 20260905011237 | 60 | 123 | 16.0 | 20.0 | 0.00 | 0.00 | 0.00 | 1010.8 | |
| 20260905010354 | 60 | 144 | 20.0 | 29.0 | 0.00 | 0.00 | 0.00 | 1010.9 | |
| 20260905005344 | 60 | 157 | 11.0 | 11.0 | 0.00 | 0.00 | 0.00 | 1010.2 | |
| 20260905004404 | 61 | 164 | 9.0 | 11.0 | 0.00 | 0.00 | 0.00 | 1010.2 | |
| 20260905003457 | 60 | 138 | 16.0 | 25.0 | 0.00 | 0.00 | 0.00 | 1010.0 | |
| 20260905002514 | 60 | 187 | 20.0 | 45.0 | 0.00 | 0.00 | 0.00 | 1009.9 | |
| 20260905001644 | 61 | 133 | 16.0 | 20.0 | 0.00 | 0.00 | 0.00 | 1009.9 | |
| 20260905000657 | 61 | 124 | 2.0 | 4.0 | 0.00 | 0.00 | 0.00 | 1010.0 | |
| 20260904235833 | 61 | 158 | 11.0 | 16.0 | 0.00 | 0.00 | 0.00 | 1009.8 | |
| 20260904234857 | 62 | 165 | 11.0 | 16.0 | 0.00 | 0.00 | 0.00 | 1010.0 | |
| 20260904233854 | 62 | 143 | 18.0 | 20.0 | 0.00 | 0.00 | 0.00 | 1009.9 | |
| 20260904232904 | 62 | 173 | 9.0 | 11.0 | 0.00 | 0.00 | 0.00 | 1010.0 | |
| 20260904231844 | 62 | 155 | 11.0 | 11.0 | 0.00 | 0.00 | 0.00 | 1009.8 | |
| 20260904230959 | 62 | 156 | 13.0 | 20.0 | 0.00 | 0.00 | 0.00 | 1010.0 | |
| 20260904230015 | 62 | 187 | 20.0 | 20.0 | 0.00 | 0.00 | 0.00 | 1010.0 | |
| 20260904225127 | 62 | 173 | 13.0 | 16.0 | 0.00 | 0.00 | 0.00 | 1009.9 | |
| 20260904224124 | 62 | 143 | 7.0 | 9.0 | 0.00 | 0.00 | 0.00 | 1009.4 | |
| 20260904223157 | 62 | 155 | 11.0 | 16.0 | 0.00 | 0.00 | 0.00 | 1009.7 | |
| 20260904222144 | 62 | 182 | 13.0 | 20.0 | 0.00 | 0.00 | 0.00 | 1009.5 | |
| 20260904221317 | 62 | 157 | 4.0 | 9.0 | 0.00 | 0.00 | 0.00 | 1009.4 | |
| 20260904220344 | 63 | 168 | 18.0 | 29.0 | 0.00 | 0.00 | 0.00 | 1009.5 |